Погода в Найбе

Россия / Республика Саха (Якутия)     70°50′59″N   130°44′44″E
темп.,
°C
ветер,
м/с
пор.,
м/с
влажн.,
%
обл.,
%
осадки,
мм/ч
давл.,
гПа
погр.,
м
1 марта, пн
пн100:00−38сз1110076 0.0 102519
03:00−38сз1110082 0.0 102519
06:00−38сз1110098 0.0 102520
09:00−38зсз1110099 0.1 102522
12:00−36сз1197100 0.0 102529
15:00−37зсз119799 0.0 102419
18:00−39з119972 0.0 102519
21:00−39юз119770 0.0 102519
2 марта, вт
вт200:00−39зюз019860 0.0 102619
03:00−39юз119865 0.0 102619
06:00−39ююз119428 0.0 102719
09:00−39ю009318 0.0 102719
12:00−37юв119016 0.0 102723
15:00−37вюв119439 0.0 102719
18:00−39ююв019767 0.0 102819
21:00−39зсз009767 0.0 102818
3 марта, ср
ср300:00−40ссз119982 0.0 102818
03:00−40сз1110068 0.0 102818
06:00−40сз1110024 0.0 102818
09:00−39сз119940 0.0 102719
12:00−37сз129797 0.0 102637
15:00−36сз229799 0.0 102533
18:00−37зсз2297100 0.0 102522
21:00−37зсз2297100 0.1 102426
4 марта, чт
чт400:00−37зсз2298100 0.0 102426
03:00−35зсз2297100 0.1 102334
06:00−34зсз2396100 0.1 1023113
09:00−32з2496100 0.2 1022143
12:00−30зсз3496100 0.1 1022197
15:00−28зсз4695100 0.1 1022362
18:00−29зсз4697100 0.1 1024182
21:00−30зсз3596100 0.1 1025143
5 марта, пт
пт500:00−33зсз229696 0.0 102525
03:00−34зсз229273 0.0 102622
06:00−34зсз229071 0.0 102622
09:00−33зсз239281 0.0 102645
12:00−30сз2394100 0.0 1027107
15:00−31зсз2393100 0.1 102740
18:00−33зсз229496 0.0 102822
21:00−34зсз229793 0.0 102920